Vertical_Velocity
2 2 1 -0 -1 -2 -2 -2 -2 -2 -1 -1 0 2 3 4 3 1 -0 -1 2 6 8 7 5 4 3 3 4 5 5 4 3 3 3 2 1 1 2 4 6 7 6 4 3 3 3 3 4 4 3 3 3 3 3 3 3 3 3 3 2 -0 -3 -4 -4 -3 -2 -1 -1
2 2 1 -1 -2 -1 -0 -1 -3 -2 -2 -1 1 2 4 5 3 2 1 -0 2 5 7 6 4 3 2 2 3 4 3 3 3 3 3 3 2 2 3 5 6 6 5 4 3 3 3 4 4 4 3 2 2 2 2 2 2 2 1 -0 -3 -4 -5 -4 -3 -2 -1 -1 -0
2 2 1 -1 0 4 5 2 -1 -2 -1 -0 1 3 5 5 3 3 2 2 3 4 4 3 2 2 1 2 2 3 3 2 3 4 4 4 3 4 4 5 5 5 4 3 3 3 4 4 4 3 2 2 1 0 0 0 0 -1 -3 -5 -6 -4 -3 -1 -1 -0 -0 -0 -0
1 0 -1 -2 1 4 5 3 -0 -1 -1 0 2 4 5 5 4 4 4 5 4 4 3 2 1 1 1 1 2 3 3 3 3 4 5 6 5 5 4 4 4 4 3 3 4 4 4 3 3 2 1 -0 -1 -1 -2 -2 -3 -4 -5 -5 -3 -1 0 1 0 -0 -0 -0 -1
1 1 1 0 1 1 0 -1 -1 -1 -0 0 2 4 5 5 5 6 6 6 5 4 3 2 2 1 1 1 2 3 3 2 4 6 8 8 6 5 3 3 3 3 3 4 4 3 3 2 1 -1 -2 -3 -2 -3 -3 -4 -4 -3 -2 -1 1 1 1 1 0 -0 -1 -1 -1
5 6 5 3 1 -1 -1 -1 -1 -1 -0 1 2 4 4 5 5 6 6 6 5 4 3 2 2 1 1 1 1 2 2 4 7 10 10 7 5 3 3 3 3 4 4 4 4 2 1 -0 -1 -2 -3 -3 -2 -3 -3 -2 -0 1 2 2 2 1 1 1 -0 -0 -0 -0 -0
4 4 4 2 -0 -0 -0 -1 -1 -1 -0 1 3 4 5 4 4 4 4 4 3 3 2 1 1 1 0 -0 -0 1 3 7 10 10 7 4 2 2 3 4 4 4 4 4 3 2 1 -0 -0 -1 -0 0 0 -0 0 1 2 3 3 3 2 1 1 0 -0 -0 0 0 0
0 1 1 0 -0 0 1 1 -0 -1 -0 2 5 6 5 3 3 3 2 1 1 1 1 1 1 1 -0 -1 -0 2 6 9 9 6 3 1 1 2 3 4 4 4 3 3 3 2 2 1 2 3 3 3 3 3 3 3 3 3 3 2 2 1 1 1 0 1 1 1 1
-0 0 0 0 0 1 1 2 0 -0 1 2 5 6 5 3 1 1 0 -0 -1 -0 0 1 1 1 0 -0 2 4 7 7 5 3 1 1 2 3 4 4 4 4 3 3 3 3 3 3 4 4 5 5 5 5 4 4 4 3 3 2 1 1 1 1 1 1 1 1 1
0 0 0 0 1 1 1 1 1 1 1 3 6 7 5 2 0 -1 -1 -1 -1 -0 -0 0 1 1 1 2 3 5 5 4 3 1 1 1 2 3 4 4 4 4 4 4 4 3 3 4 5 5 6 7 6 5 4 3 3 3 2 1 1 0 0 0 1 1 1 1 1
1 1 0 -0 0 1 1 2 2 2 2 3 5 6 5 2 0 -1 -1 -1 -1 -1 -1 -1 0 2 3 4 4 3 3 2 1 1 1 2 4 4 4 4 4 4 4 3 3 4 4 5 6 7 7 6 5 4 3 2 2 1 1 0 -0 -1 -0 -0 0 0 -0 -0 -1
3 5 5 3 2 2 2 3 3 2 2 3 5 5 4 2 0 -0 -1 -1 -1 -1 -1 -1 1 3 4 4 3 2 2 2 1 1 2 4 4 4 4 3 3 3 3 3 4 5 6 7 8 7 6 5 4 3 2 1 0 -0 -1 -1 -2 -2 -1 -1 -1 -1 -2 -2 -2
5 10 12 10 7 5 4 4 3 3 3 3 4 4 3 2 1 -0 -1 -1 -1 -1 -1 -0 2 3 4 3 2 2 2 2 2 2 3 4 4 3 3 3 3 3 4 4 6 7 8 8 7 6 4 3 2 1 0 -1 -1 -2 -2 -2 -2 -2 -2 -2 -2 -2 -2 -2 -1
4 8 11 11 9 6 5 3 3 3 3 3 4 4 3 2 1 0 -0 -0 -0 -1 -0 0 2 3 3 3 3 3 2 2 2 3 3 3 2 2 2 2 3 4 5 6 7 8 8 7 5 4 2 1 1 -0 -1 -2 -3 -3 -3 -2 -2 -2 -1 -1 -2 -2 -2 -1 -0
2 4 5 6 6 4 3 2 2 2 2 3 3 4 4 3 2 1 1 0 0 -0 0 2 3 3 4 4 4 3 3 2 2 2 2 1 1 2 3 4 5 6 7 7 7 7 6 5 3 2 1 -0 -1 -2 -2 -3 -3 -2 -2 -1 -1 -0 -0 -0 -1 -1 -1 -1 -0
3 3 3 3 3 3 2 2 2 2 2 2 3 3 3 3 2 2 2 1 1 1 2 4 5 6 6 6 5 4 3 3 2 2 1 2 3 4 6 7 7 7 7 6 6 5 4 3 2 1 -0 -1 -2 -2 -2 -2 -2 -1 -0 0 0 0 0 0 -0 -1 -1 -1 -0
7 7 6 5 4 4 3 3 3 3 2 2 2 3 3 3 3 3 4 4 4 4 5 7 8 8 8 6 5 4 3 2 2 2 3 5 6 7 8 8 7 6 5 4 4 3 3 2 1 -0 -1 -1 -2 -2 -1 -1 -0 0 1 1 1 0 0 -0 -0 -1 -1 -1 -0
10 9 9 7 7 6 6 6 5 5 4 3 3 3 4 4 5 6 7 7 6 6 7 9 8 7 6 4 3 2 2 3 3 5 6 7 8 8 7 6 5 4 3 3 3 2 2 1 0 -0 -1 -1 -1 -1 -0 0 1 1 1 1 0 -0 -1 -1 -1 -1 -1 -1 -0
6 5 5 5 5 5 6 6 6 6 6 5 5 5 6 7 8 9 8 6 6 6 6 6 4 3 2 1 0 1 1 3 4 6 7 7 6 5 4 4 3 3 2 2 2 1 1 0 0 -0 -0 -0 -0 0 0 0 1 1 1 1 0 -0 -1 -2 -2 -2 -1 -1 -0
-0 -0 -0 -0 0 1 2 3 4 4 5 5 6 6 7 8 7 6 4 3 3 3 2 1 -0 -1 -1 -1 -0 -0 1 2 4 5 5 4 3 3 3 2 2 2 1 1 1 1 0 0 0 1 1 1 1 0 0 -0 -0 -0 0 0 0 -0 -0 -1 -1 -1 -1 -1 -1
-2 -2 -3 -3 -2 -2 -2 -1 -0 -0 0 1 2 2 2 2 1 1 1 1 0 -0 -1 -2 -2 -1 -0 1 2 2 2 3 3 3 3 2 2 2 2 1 1 1 1 1 1 1 1 1 1 1 1 1 1 1 0 -0 -1 -1 -1 -1 -0 0 1 1 1 1 1 -0 -1
-2 -2 -2 -3 -3 -3 -2 -2 -3 -3 -3 -3 -4 -4 -4 -4 -3 -3 -2 -1 -2 -2 -2 -1 0 2 3 3 4 4 3 3 3 3 2 2 2 1 1 1 0 0 1 1 1 1 1 1 1 1 1 1 1 1 1 1 0 -0 -1 -1 -1 -0 1 2 3 2 2 1 0
-0 -1 -1 -2 -2 -2 -2 -3 -3 -3 -4 -5 -6 -7 -7 -7 -5 -3 -2 -2 -1 -0 1 2 3 3 4 4 4 4 3 3 2 2 1 1 1 1 0 0 0 1 1 1 1 1 1 1 0 -0 -0 -0 0 1 1 2 1 1 -0 -1 -1 -0 1 2 3 2 2 1 1
-0 -1 -1 -2 -2 -2 -2 -3 -3 -4 -5 -7 -8 -8 -8 -6 -4 -3 -1 0 1 2 3 3 3 4 4 4 3 3 3 2 2 1 1 1 0 0 0 0 1 1 1 0 -0 -0 -0 -0 -0 -1 -1 -0 0 1 2 3 2 2 2 1 1 1 1 2 2 2 2 1 1
-1 -2 -2 -3 -3 -3 -4 -4 -5 -7 -8 -9 -9 -8 -7 -5 -3 -2 -0 1 1 2 2 2 2 2 2 2 2 2 1 1 1 1 1 0 0 0 0 0 0 -0 -1 -1 -1 -0 -0 -0 -0 -0 -0 0 1 1 2 3 3 4 3 3 2 1 1 1 2 2 3 3 3
-2 -2 -3 -3 -4 -5 -5 -6 -7 -8 -9 -9 -8 -7 -5 -4 -3 -2 -1 -1 -0 0 0 1 1 0 0 0 0 1 1 1 1 0 0 0 -0 -0 -1 -1 -1 -1 -1 -1 -0 -0 -0 -0 -0 -0 -0 0 1 2 3 4 5 5 4 3 1 1 1 1 2 4 5 5 5
-2 -3 -3 -3 -4 -5 -6 -7 -7 -7 -7 -6 -5 -4 -4 -3 -3 -2 -2 -2 -2 -1 -1 -1 -1 -1 -0 -0 0 0 1 1 1 0 0 -0 -0 -1 -1 -1 -1 -2 -2 -1 -0 -0 -0 -0 -1 -0 -0 1 2 4 5 5 5 4 2 1 0 1 1 2 3 4 5 5 4
-2 -3 -3 -3 -4 -4 -5 -5 -5 -4 -4 -3 -3 -2 -2 -2 -2 -2 -3 -2 -2 -2 -2 -1 -1 -1 -0 0 0 0 1 1 1 1 0 0 -0 -0 -1 -1 -2 -3 -3 -1 1 1 1 1 -0 -0 0 1 3 3 3 3 1 1 0 0 1 3 4 4 4 4 3 3 2
-3 -3 -3 -3 -3 -3 -3 -3 -2 -2 -2 -1 -1 -1 -2 -2 -2 -2 -2 -2 -2 -1 -1 -1 -1 -0 0 0 0 0 1 1 1 1 1 1 1 0 -0 -1 -2 -1 1 4 5 4 3 1 -0 -0 -0 0 1 0 -0 -1 -1 -1 0 2 4 5 5 4 3 3 3 2 2
-2 -2 -2 -2 -2 -2 -2 -1 -1 -1 -0 -0 -1 -1 -1 -1 -1 -1 -1 -1 -0 -0 -0 0 0 1 1 1 1 1 1 1 1 1 1 0 0 -0 -0 0 2 5 8 11 9 7 4 2 0 -1 -2 -2 -2 -3 -3 -3 -2 -0 2 4 4 4 3 2 2 2 3 3 3
-2 -2 -1 -1 -1 -0 -0 -0 0 0 0 0 0 -0 -0 -0 0 0 0 1 1 1 1 1 1 1 1 1 0 -0 -0 -1 -1 -1 -1 -1 -1 -1 -0 3 5 9 11 11 9 8 6 5 2 0 -2 -3 -4 -4 -4 -4 -2 0 2 3 2 1 1 0 0 0 1 1 3
-1 -0 -0 -0 0 0 1 1 1 1 1 1 1 1 1 1 1 1 2 2 2 2 2 1 2 2 0 -0 -1 -2 -2 -2 -2 -2 -1 -1 -1 -1 0 4 6 6 6 5 5 5 5 3 2 -0 -2 -4 -5 -5 -4 -3 -1 -0 1 1 0 -0 -0 -1 -1 -2 -2 -2 0
-0 -0 0 0 0 0 0 1 1 1 1 1 1 1 1 1 2 2 2 2 1 1 0 -0 -0 -0 0 3 1 -1 -1 -1 -0 0 1 1 0 1 3 5 3 2 1 1 2 2 2 1 0 -1 -2 -3 -4 -3 -2 -1 -1 -0 -0 -0 -0 -1 -1 -1 -2 -2 -2 -1 0
-1 -1 -0 -0 -0 -0 -0 -0 0 0 0 0 1 1 1 1 1 1 0 -0 -1 -2 -2 -2 -1 1 4 6 9 7 5 4 3 3 2 3 2 2 2 2 1 -1 -1 -1 0 1 2 1 -0 -1 -2 -2 -2 -1 -0 -0 -0 -0 -0 -0 -0 -0 -0 -0 -0 -1 -1 -0 0
-1 -1 -1 -1 -1 -1 -1 -1 -1 -0 -0 -0 -0 -0 -0 -0 -0 -0 -1 -2 -3 -2 -0 2 2 2 4 8 9 7 5 3 2 2 2 1 0 0 1 1 1 0 -0 -2 -1 -1 -1 -1 -2 -2 -2 -2 -1 -0 0 0 -0 -0 -0 -0 -0 0 1 1 0 1 2 3 3
-1 -2 -2 -2 -2 -2 -2 -2 -1 -1 -1 -1 -1 -1 -1 -1 -1 -1 -2 -4 -4 -3 -0 2 2 3 3 4 5 4 3 2 1 1 2 2 1 1 1 2 2 1 1 -1 -2 -2 -3 -3 -3 -3 -3 -2 -1 -0 0 0 1 1 1 0 -0 -0 0 0 3 6 9 10 7
-1 -2 -2 -2 -2 -2 -2 -1 -1 -1 -1 -1 -2 -2 -3 -3 -3 -4 -5 -7 -9 -7 -3 1 3 4 3 2 2 2 2 2 3 3 3 3 2 2 2 2 1 1 1 0 -1 -2 -2 -3 -3 -3 -2 -2 -2 -1 -1 1 3 5 5 2 -1 -1 1 6 10 13 13 11 7
-2 -2 -3 -3 -2 -2 -1 -1 -1 -1 -1 -1 -2 -3 -3 -3 -4 -5 -6 -6 -7 -4 -0 3 3 3 3 2 1 1 1 2 3 3 2 1 2 2 2 2 1 1 1 0 -0 -1 -2 -1 -0 0 0 -0 -1 -2 -2 0 5 7 7 3 -1 0 4 10 11 10 10 9 7
-2 -1 -1 -1 -1 -1 -1 -0 -0 -1 -1 -1 -2 -2 -3 -3 -4 -5 -4 -2 -2 -0 2 2 2 2 2 2 1 0 0 1 1 1 1 1 1 2 2 2 1 1 1 0 -1 -1 -1 -1 1 2 2 2 0 -1 -1 -0 3 4 2 -0 -1 0 2 3 3 4 5 6 5
0 1 2 2 1 1 0 -0 -0 -1 -1 -2 -2 -3 -3 -3 -3 -3 -3 -1 0 2 2 2 2 2 2 1 1 0 -0 -0 0 1 1 1 1 2 2 2 1 1 0 0 -0 -0 0 1 2 3 3 2 2 1 1 0 -0 -1 -2 -2 -2 -2 -2 -2 -0 2 3 3 3
1 2 2 2 1 1 0 -0 -1 -2 -2 -3 -3 -4 -3 -1 0 1 1 2 3 4 4 3 3 2 2 1 0 -0 -0 -0 -0 0 1 1 1 1 2 2 2 1 1 0 -0 -0 0 2 2 3 3 3 3 3 2 1 0 -0 -1 -1 -1 -1 -2 -2 0 3 4 4 2
Height
5648 5649 5650 5651 5652 5654 5655 5657 5658 5659 5660 5661 5662 5663 5665 5666 5668 5670 5672 5674 5675 5677 5679 5680 5682 5683 5685 5687 5689 5690 5692 5694 5695 5697 5699 5700 5701 5702 5704 5705 5707 5709 5711 5713 5714 5715 5716 5717 5718 5720 5721 5722 5723 5724 5725 5726 5727 5728 5729 5729 5730 5731 5732 5733 5734 5735 5737 5738 5739
5647 5648 5649 5651 5652 5654 5656 5657 5657 5658 5660 5660 5661 5662 5664 5665 5667 5669 5671 5673 5675 5676 5678 5679 5680 5682 5684 5685 5687 5689 5691 5692 5694 5695 5697 5698 5699 5701 5702 5704 5706 5708 5710 5711 5712 5713 5714 5715 5717 5718 5719 5720 5721 5722 5723 5724 5724 5725 5726 5727 5728 5729 5731 5732 5733 5734 5735 5736 5738
5647 5648 5649 5651 5653 5655 5656 5656 5657 5658 5659 5660 5660 5661 5663 5664 5666 5668 5670 5672 5674 5675 5676 5678 5679 5680 5682 5684 5686 5688 5689 5691 5692 5694 5695 5696 5698 5699 5701 5703 5705 5706 5708 5709 5710 5711 5713 5714 5715 5716 5717 5717 5718 5719 5720 5720 5721 5723 5724 5726 5728 5729 5730 5731 5732 5733 5734 5735 5736
5646 5648 5650 5651 5653 5654 5655 5656 5656 5657 5658 5659 5660 5661 5662 5664 5665 5667 5669 5671 5673 5674 5675 5676 5678 5680 5681 5683 5685 5686 5688 5689 5691 5692 5694 5695 5697 5698 5700 5701 5703 5705 5706 5707 5709 5710 5711 5712 5713 5713 5714 5715 5715 5716 5717 5719 5720 5722 5725 5726 5728 5729 5729 5730 5731 5732 5733 5734 5735
5646 5648 5649 5650 5652 5653 5654 5655 5655 5656 5657 5658 5659 5660 5662 5663 5665 5667 5669 5670 5672 5673 5675 5676 5677 5679 5680 5682 5684 5685 5687 5688 5690 5691 5693 5695 5696 5697 5699 5700 5702 5703 5705 5706 5707 5708 5709 5710 5710 5711 5711 5712 5713 5715 5716 5719 5721 5723 5725 5726 5727 5728 5729 5729 5730 5731 5732 5733 5733
5647 5648 5649 5650 5651 5652 5653 5654 5655 5656 5657 5658 5659 5660 5661 5663 5664 5666 5668 5669 5671 5672 5674 5675 5677 5678 5680 5682 5683 5685 5686 5688 5689 5691 5693 5694 5695 5696 5698 5699 5700 5702 5703 5704 5705 5706 5707 5708 5708 5709 5710 5712 5714 5716 5718 5720 5721 5723 5724 5725 5726 5727 5728 5728 5729 5730 5730 5731 5732
5647 5647 5649 5649 5650 5651 5652 5653 5654 5655 5656 5657 5658 5660 5661 5662 5664 5665 5667 5668 5670 5671 5673 5675 5676 5678 5680 5681 5682 5684 5685 5687 5689 5691 5692 5693 5694 5695 5697 5698 5700 5701 5702 5704 5705 5705 5706 5707 5709 5710 5712 5714 5715 5717 5719 5720 5720 5722 5723 5724 5725 5726 5727 5727 5728 5729 5729 5730 5730
5645 5647 5648 5648 5649 5650 5651 5652 5653 5654 5655 5656 5658 5659 5660 5661 5663 5664 5665 5667 5669 5670 5672 5674 5675 5677 5679 5680 5682 5683 5685 5687 5688 5690 5691 5692 5693 5695 5696 5698 5699 5700 5702 5703 5705 5705 5707 5708 5710 5711 5713 5715 5716 5717 5718 5719 5720 5721 5722 5723 5724 5725 5726 5726 5727 5727 5728 5728 5729
5645 5645 5646 5647 5648 5649 5650 5652 5653 5654 5655 5655 5657 5659 5660 5660 5661 5663 5664 5666 5668 5669 5671 5673 5675 5676 5678 5679 5681 5683 5684 5686 5687 5689 5690 5691 5692 5694 5695 5697 5699 5700 5701 5703 5704 5706 5707 5709 5710 5712 5713 5714 5715 5716 5717 5718 5719 5720 5721 5722 5723 5724 5725 5725 5725 5726 5726 5727 5727
5644 5645 5645 5646 5647 5648 5649 5650 5652 5653 5654 5655 5656 5658 5659 5659 5660 5662 5663 5665 5666 5668 5670 5672 5674 5675 5677 5679 5680 5682 5683 5685 5686 5687 5688 5690 5691 5693 5695 5696 5698 5699 5701 5702 5704 5706 5707 5709 5710 5711 5712 5713 5714 5715 5716 5717 5718 5719 5720 5721 5722 5723 5723 5724 5724 5724 5725 5725 5725
5643 5643 5644 5645 5646 5647 5648 5650 5651 5652 5653 5655 5656 5657 5658 5659 5660 5661 5662 5664 5665 5667 5669 5671 5673 5674 5676 5678 5679 5681 5682 5683 5685 5685 5687 5689 5690 5692 5694 5695 5697 5699 5700 5702 5704 5705 5707 5708 5709 5710 5711 5713 5714 5715 5715 5716 5717 5718 5719 5720 5720 5721 5721 5722 5722 5722 5722 5722 5722
5642 5643 5644 5645 5645 5646 5648 5649 5650 5652 5653 5654 5655 5656 5657 5658 5659 5660 5661 5663 5665 5666 5668 5670 5672 5674 5675 5677 5678 5680 5680 5682 5683 5684 5685 5687 5689 5691 5693 5695 5696 5698 5700 5702 5703 5705 5706 5707 5709 5710 5711 5712 5713 5713 5714 5715 5716 5717 5717 5718 5718 5719 5719 5720 5720 5720 5720 5720 5720
5642 5643 5645 5645 5645 5646 5647 5649 5650 5651 5652 5653 5654 5655 5656 5657 5658 5659 5660 5662 5664 5665 5667 5669 5671 5673 5674 5676 5677 5678 5680 5680 5681 5683 5685 5686 5688 5690 5692 5694 5695 5697 5699 5701 5702 5704 5705 5706 5708 5709 5710 5710 5711 5712 5713 5714 5714 5715 5715 5716 5717 5717 5717 5718 5717 5717 5717 5717 5717
5641 5643 5644 5645 5645 5646 5647 5648 5649 5650 5651 5652 5653 5655 5655 5657 5658 5659 5660 5661 5663 5665 5666 5668 5670 5671 5673 5675 5676 5677 5678 5679 5680 5682 5684 5686 5688 5690 5691 5693 5695 5697 5699 5700 5702 5703 5705 5706 5707 5708 5709 5709 5710 5711 5711 5712 5713 5713 5714 5715 5715 5715 5715 5715 5715 5715 5715 5715 5715
5641 5642 5643 5644 5645 5646 5647 5648 5649 5650 5650 5651 5652 5654 5655 5656 5657 5658 5659 5661 5662 5664 5665 5667 5669 5670 5672 5674 5675 5676 5677 5679 5680 5682 5684 5685 5687 5689 5691 5693 5695 5696 5698 5700 5701 5702 5704 5705 5705 5706 5707 5708 5709 5710 5710 5710 5711 5712 5712 5713 5713 5713 5713 5713 5713 5713 5713 5713 5713
5641 5642 5643 5644 5645 5645 5646 5647 5648 5649 5650 5651 5651 5653 5654 5655 5656 5657 5659 5660 5662 5663 5665 5666 5668 5670 5672 5673 5675 5676 5677 5679 5680 5682 5684 5685 5687 5689 5691 5693 5695 5696 5698 5699 5700 5701 5703 5704 5704 5705 5706 5707 5707 5708 5709 5709 5710 5710 5710 5710 5711 5711 5711 5711 5711 5711 5711 5711 5711
5641 5642 5643 5644 5644 5645 5645 5646 5647 5648 5649 5650 5651 5652 5653 5654 5655 5657 5658 5660 5661 5663 5665 5666 5668 5670 5672 5673 5674 5676 5677 5679 5680 5682 5684 5686 5688 5690 5692 5693 5695 5696 5697 5698 5700 5701 5702 5702 5703 5704 5705 5705 5706 5707 5707 5707 5708 5708 5708 5709 5709 5709 5709 5709 5709 5709 5708 5708 5708
5641 5641 5642 5643 5643 5644 5645 5645 5646 5647 5648 5649 5650 5651 5652 5653 5655 5656 5658 5660 5661 5663 5665 5667 5669 5670 5672 5673 5674 5676 5677 5679 5681 5683 5685 5687 5689 5690 5692 5693 5694 5695 5696 5698 5699 5700 5701 5701 5702 5703 5704 5704 5705 5705 5705 5706 5706 5706 5706 5706 5706 5706 5706 5706 5706 5706 5706 5706 5706
5640 5640 5640 5641 5641 5642 5643 5644 5645 5646 5647 5648 5649 5650 5651 5653 5655 5656 5658 5660 5661 5663 5665 5667 5668 5670 5671 5673 5675 5676 5678 5680 5682 5684 5686 5687 5689 5690 5691 5692 5693 5695 5695 5697 5698 5699 5700 5700 5701 5701 5702 5702 5703 5703 5703 5704 5704 5704 5704 5704 5704 5704 5704 5704 5704 5703 5703 5703 5702
5639 5639 5639 5640 5640 5641 5642 5643 5644 5645 5646 5647 5648 5650 5651 5653 5655 5656 5658 5659 5661 5663 5665 5666 5668 5670 5671 5673 5675 5676 5678 5680 5682 5684 5685 5687 5688 5689 5690 5691 5693 5694 5695 5696 5697 5697 5698 5699 5699 5700 5700 5700 5701 5701 5701 5701 5702 5702 5702 5702 5702 5702 5701 5701 5701 5700 5700 5700 5699
5639 5639 5640 5640 5640 5641 5642 5642 5643 5644 5645 5646 5648 5649 5650 5652 5654 5655 5657 5659 5661 5663 5664 5666 5668 5670 5672 5674 5675 5677 5679 5680 5682 5683 5685 5686 5687 5688 5690 5690 5692 5693 5694 5695 5695 5696 5696 5697 5698 5698 5699 5699 5699 5700 5700 5700 5700 5700 5700 5700 5699 5699 5699 5699 5698 5698 5697 5696 5696
5640 5640 5640 5641 5641 5641 5642 5643 5643 5644 5645 5646 5647 5648 5650 5651 5653 5655 5657 5659 5661 5663 5665 5667 5669 5670 5672 5674 5676 5677 5679 5680 5681 5683 5684 5685 5686 5687 5688 5690 5690 5691 5692 5693 5694 5694 5695 5695 5696 5696 5697 5697 5697 5698 5698 5698 5698 5697 5697 5697 5696 5696 5696 5696 5696 5695 5695 5694 5693
5640 5641 5641 5641 5642 5642 5643 5643 5644 5645 5645 5646 5647 5648 5650 5651 5653 5655 5657 5660 5661 5664 5665 5667 5669 5671 5673 5674 5676 5677 5679 5680 5681 5682 5683 5684 5685 5686 5687 5688 5689 5690 5691 5691 5692 5693 5693 5694 5694 5694 5695 5695 5695 5695 5695 5695 5695 5695 5695 5694 5694 5694 5694 5693 5693 5692 5691 5691 5690
5641 5642 5642 5642 5643 5643 5644 5644 5645 5645 5646 5646 5647 5649 5650 5652 5654 5656 5658 5660 5662 5665 5666 5668 5670 5671 5673 5674 5675 5677 5678 5679 5680 5681 5682 5683 5684 5685 5686 5687 5688 5689 5689 5690 5690 5691 5691 5692 5692 5692 5693 5693 5693 5693 5693 5693 5693 5693 5692 5692 5692 5691 5691 5690 5690 5689 5688 5687 5687
5642 5642 5643 5643 5644 5644 5645 5645 5645 5646 5647 5647 5648 5650 5652 5654 5655 5658 5660 5661 5663 5665 5666 5668 5670 5671 5672 5674 5675 5676 5677 5679 5680 5680 5682 5683 5683 5684 5685 5686 5686 5687 5688 5688 5689 5689 5689 5690 5690 5690 5690 5690 5690 5690 5690 5690 5690 5690 5690 5690 5689 5689 5688 5687 5687 5686 5685 5684 5684
5642 5642 5643 5643 5644 5645 5645 5645 5646 5647 5647 5649 5650 5652 5653 5655 5657 5659 5660 5662 5663 5665 5666 5668 5669 5670 5672 5673 5674 5675 5677 5678 5679 5680 5681 5682 5682 5683 5684 5685 5685 5686 5686 5686 5687 5687 5687 5687 5687 5687 5687 5687 5687 5687 5687 5688 5688 5687 5687 5686 5686 5685 5685 5684 5684 5683 5682 5681 5681
5642 5642 5643 5643 5644 5645 5645 5645 5646 5647 5649 5650 5651 5653 5655 5656 5658 5659 5660 5662 5663 5665 5666 5667 5669 5670 5671 5672 5674 5675 5676 5677 5678 5679 5680 5680 5681 5682 5682 5683 5683 5684 5684 5684 5684 5684 5684 5684 5684 5684 5684 5684 5684 5685 5685 5685 5685 5684 5684 5683 5683 5682 5682 5682 5681 5680 5680 5679 5678
5642 5642 5643 5644 5644 5645 5645 5646 5647 5648 5650 5651 5653 5654 5655 5657 5658 5659 5660 5662 5663 5664 5665 5667 5668 5670 5671 5672 5673 5674 5675 5676 5677 5678 5679 5679 5680 5680 5681 5681 5681 5681 5681 5681 5681 5681 5681 5681 5681 5681 5681 5681 5682 5682 5682 5682 5681 5681 5681 5680 5680 5680 5680 5679 5678 5677 5677 5676 5675
5642 5643 5643 5644 5644 5645 5646 5647 5648 5649 5650 5652 5653 5654 5655 5656 5658 5659 5660 5661 5663 5664 5665 5666 5668 5669 5670 5671 5672 5673 5674 5675 5675 5676 5677 5677 5678 5678 5679 5679 5679 5679 5679 5679 5679 5679 5679 5678 5678 5678 5678 5678 5678 5678 5678 5678 5678 5678 5678 5678 5678 5677 5676 5675 5675 5674 5673 5672 5671
5642 5643 5643 5644 5645 5645 5646 5647 5648 5650 5650 5652 5653 5654 5655 5656 5657 5659 5660 5661 5662 5664 5665 5666 5667 5668 5669 5670 5671 5672 5672 5673 5673 5674 5675 5675 5676 5676 5677 5677 5678 5678 5677 5677 5677 5677 5676 5676 5676 5675 5675 5675 5675 5675 5675 5675 5675 5675 5675 5675 5674 5674 5673 5672 5671 5670 5670 5669 5669
5642 5643 5643 5644 5645 5646 5647 5648 5649 5650 5650 5651 5653 5654 5655 5656 5657 5658 5659 5660 5662 5663 5664 5665 5666 5667 5668 5669 5669 5670 5670 5671 5671 5672 5673 5674 5674 5674 5675 5675 5676 5676 5675 5675 5675 5675 5675 5674 5674 5673 5673 5673 5672 5672 5672 5672 5672 5672 5672 5672 5671 5670 5670 5669 5668 5667 5666 5666 5665
5642 5643 5644 5644 5645 5646 5647 5648 5649 5650 5650 5651 5653 5654 5655 5656 5657 5658 5659 5660 5661 5662 5663 5664 5665 5665 5666 5667 5667 5668 5669 5669 5670 5671 5671 5672 5672 5672 5673 5674 5674 5673 5673 5673 5673 5672 5672 5672 5672 5671 5670 5670 5670 5670 5670 5670 5670 5670 5669 5669 5668 5667 5666 5665 5665 5664 5663 5662 5662
5642 5643 5644 5644 5645 5646 5647 5648 5649 5650 5650 5651 5652 5653 5655 5655 5656 5657 5658 5659 5660 5661 5661 5662 5664 5665 5666 5667 5668 5669 5669 5669 5670 5670 5670 5670 5670 5671 5671 5671 5671 5670 5670 5670 5670 5670 5670 5670 5669 5669 5669 5668 5668 5668 5668 5667 5667 5667 5666 5666 5665 5664 5663 5662 5662 5661 5660 5660 5659
5642 5643 5644 5644 5645 5646 5647 5648 5649 5650 5650 5651 5652 5653 5654 5655 5655 5656 5657 5658 5659 5659 5660 5661 5663 5665 5665 5666 5668 5670 5670 5669 5669 5669 5669 5670 5669 5669 5669 5669 5669 5668 5668 5668 5668 5668 5668 5668 5667 5666 5666 5666 5666 5666 5665 5665 5665 5664 5663 5662 5661 5661 5660 5659 5658 5657 5657 5656 5655
5642 5643 5643 5644 5645 5646 5647 5648 5649 5649 5650 5651 5652 5653 5653 5654 5655 5655 5656 5657 5657 5659 5660 5661 5662 5664 5665 5665 5665 5666 5667 5667 5667 5667 5668 5668 5667 5667 5667 5667 5667 5666 5666 5666 5665 5665 5665 5665 5664 5664 5664 5664 5664 5663 5663 5662 5662 5661 5660 5659 5658 5658 5657 5656 5655 5654 5653 5652 5651
5642 5643 5643 5644 5645 5646 5646 5647 5648 5649 5650 5650 5651 5652 5653 5654 5654 5655 5655 5656 5657 5658 5659 5660 5660 5662 5663 5664 5665 5665 5665 5666 5666 5666 5666 5666 5666 5665 5665 5665 5665 5665 5664 5664 5663 5663 5662 5662 5661 5661 5661 5661 5660 5660 5660 5659 5659 5658 5657 5656 5655 5655 5654 5653 5652 5651 5650 5649 5647
5642 5643 5643 5644 5645 5645 5646 5647 5648 5649 5650 5650 5651 5651 5652 5653 5654 5654 5654 5655 5656 5657 5658 5659 5660 5661 5662 5663 5663 5663 5664 5664 5664 5664 5664 5664 5664 5664 5663 5663 5663 5662 5662 5661 5660 5660 5660 5659 5659 5658 5658 5658 5657 5657 5656 5656 5656 5655 5655 5654 5653 5652 5651 5651 5650 5649 5647 5645 5643
5642 5643 5643 5644 5645 5645 5646 5646 5647 5648 5649 5650 5650 5651 5651 5652 5652 5653 5653 5653 5654 5656 5657 5659 5660 5660 5660 5661 5661 5661 5661 5661 5661 5661 5661 5661 5661 5661 5661 5661 5660 5660 5659 5659 5658 5657 5657 5656 5656 5656 5655 5655 5654 5653 5653 5653 5654 5654 5653 5652 5651 5650 5650 5649 5647 5645 5643 5641 5640
5642 5643 5643 5644 5644 5645 5645 5646 5646 5647 5648 5648 5649 5649 5650 5650 5651 5652 5653 5653 5654 5655 5656 5657 5658 5658 5658 5659 5659 5659 5659 5659 5659 5659 5659 5659 5659 5659 5658 5658 5658 5657 5656 5656 5655 5654 5654 5654 5653 5653 5653 5652 5651 5650 5650 5650 5651 5651 5650 5649 5648 5648 5646 5644 5643 5641 5640 5638 5637
5642 5642 5643 5643 5644 5644 5645 5645 5645 5646 5646 5647 5647 5648 5648 5649 5650 5650 5651 5652 5653 5654 5655 5655 5656 5656 5656 5656 5656 5656 5656 5656 5656 5656 5656 5655 5655 5655 5655 5655 5655 5654 5654 5653 5652 5652 5651 5651 5650 5650 5650 5650 5649 5648 5648 5647 5647 5646 5645 5645 5644 5643 5641 5640 5639 5638 5636 5635 5634
5641 5642 5642 5643 5643 5643 5644 5644 5644 5645 5645 5646 5646 5647 5647 5648 5649 5650 5651 5652 5653 5653 5653 5654 5654 5654 5654 5654 5654 5654 5654 5654 5654 5653 5653 5653 5653 5653 5652 5652 5652 5651 5651 5650 5650 5649 5649 5648 5648 5648 5647 5647 5646 5646 5645 5644 5643 5642 5642 5641 5640 5639 5638 5636 5635 5634 5633 5631 5630